Walla Walla, WA
on Sunday, December 23, 2012

Sunday
Previous Day Next Day
Daily Summary
 ActualAverage (KPDT)Record (KPDT)
Temperature
Mean Temperature °F 32°F  
Max Temperature 48°F 39°F 64°F (1950)
Min Temperature 35°F 26°F -19°F (1983)
Degree Days
Heating Degree Days 24 33  
Month to date heating degree days 727  
Since 1 July heating degree days 1980  
Cooling Degree Days 0 0  
Month to date cooling degree days 0  
Year to date cooling degree days 636  
Moisture
Dew Point 30°F   
Average Humidity 66    
Maximum Humidity 93    
Minimum Humidity 39    
Precipitation
Precipitation 0.11 in 0.04 in 0.50 in (1922)
Month to date precipitation 1.10  
Year to date precipitation 12.29  
Snow
Snow 0.00 in 0.20 in 3.70 in (1977)
Month to date snowfall 4.3  
Year to date snowfall 13.5  
Since 1 July snowfall 5.8  
Snow Depth in   
Wind
Wind Speed 11 mph   
Max Wind Speed 32 mph   
Max Gust Speed 38 mph   
Visibility 10 miles   
Events Rain   

Key: T is trace of precipitation, MM is missing value
Source: NWS Daily Summary
Time(PST)TemperatureDew PointHumidity Pressure Visibility Wind DirectionWind SpeedGust SpeedPrecipitationEvents Conditions
12:53 AM 39.9°F 28.0°F 63% 29.85 in 10.0 miles Calm Calm - N/A   Overcast
1:53 AM 41.0°F 27.0°F 57% 29.87 in 10.0 miles South 6.9 mph - N/A   Clear
2:53 AM 41.0°F 26.1°F 55% 29.88 in 10.0 miles South 8.1 mph - N/A   Clear
3:53 AM 43.0°F 24.1°F 47% 29.88 in 10.0 miles SSE 11.5 mph - N/A   Clear
4:53 AM 42.1°F 24.1°F 49% 29.88 in 10.0 miles South 11.5 mph - N/A   Clear
5:53 AM 43.0°F 24.1°F 47% 29.89 in 10.0 miles South 11.5 mph - N/A   Partly Cloudy
6:53 AM 44.1°F 23.0°F 43% 29.86 in 10.0 miles SE 12.7 mph - N/A   Clear
7:53 AM 43.0°F 24.1°F 47% 29.86 in 10.0 miles SSE 13.8 mph - N/A   Clear
9:53 AM 46.9°F 25.0°F 42% 29.83 in 10.0 miles SE 15.0 mph - N/A   Clear
10:53 AM 48.0°F 24.1°F 39% 29.76 in 10.0 miles SSE 13.8 mph 26.5 mph N/A   Clear
11:53 AM 48.9°F 25.0°F 39% 29.73 in 10.0 miles SSE 10.4 mph 16.1 mph N/A   Clear
12:53 PM 48.9°F 25.0°F 39% 29.68 in 10.0 miles SSE 19.6 mph 27.6 mph N/A   Clear
1:53 PM 48.9°F 26.1°F 41% 29.61 in 10.0 miles SSE 32.2 mph 38.0 mph N/A   Overcast
2:53 PM 46.9°F 28.9°F 50% 29.62 in 10.0 miles SE 13.8 mph 35.7 mph 0.00 in Rain Light Rain
3:53 PM 43.0°F 33.1°F 68% 29.56 in 10.0 miles ESE 21.9 mph 29.9 mph 0.00 in Rain Light Rain
4:53 PM 46.0°F 30.0°F 54% 29.54 in 10.0 miles East 13.8 mph 23.0 mph 0.00 in   Overcast
5:53 PM 41.0°F 34.0°F 76% 29.56 in 10.0 miles North 12.7 mph 25.3 mph 0.01 in Rain Light Rain
6:53 PM 42.1°F 35.1°F 76% 29.59 in 8.0 miles SW 12.7 mph - 0.03 in Rain Light Rain
7:03 PM 41.0°F 35.6°F 81% 29.58 in 8.0 miles South 12.7 mph - 0.01 in Rain Light Rain
7:53 PM 39.0°F 36.0°F 89% 29.63 in 8.0 miles SW 13.8 mph - 0.06 in Rain Light Rain
8:05 PM 37.4°F 35.6°F 93% 29.62 in 5.0 miles SSW 13.8 mph - 0.00 in Rain Light Rain
8:53 PM 37.9°F 35.1°F 89% 29.68 in 10.0 miles SW 19.6 mph - 0.00 in   Overcast
9:00 PM 37.4°F 33.8°F 87% 29.68 in 10.0 miles SW 16.1 mph - N/A   Overcast
9:15 PM 35.6°F 33.8°F 93% 29.69 in 9.0 miles SSW 16.1 mph 27.6 mph 0.00 in   Overcast
9:53 PM 35.1°F 33.1°F 92% 29.74 in 9.0 miles SSW 13.8 mph - 0.01 in   Overcast
10:23 PM 35.6°F 33.8°F 93% 29.73 in 10.0 miles SSW 13.8 mph - N/A   Overcast
10:53 PM 36.0°F 33.1°F 89% 29.76 in 10.0 miles South 16.1 mph - N/A   Overcast
11:11 PM 37.4°F 33.8°F 87% 29.75 in 10.0 miles South 13.8 mph - N/A   Overcast
11:53 PM 37.0°F 33.1°F 86% 29.79 in 10.0 miles SSW 13.8 mph - 0.00 in   Overcast
Moon Phase
Dec. 23 Dec. 28 Jan. 04 Jan. 11 Jan. 18
Sunrise:07:33 AM (PST) Moon Rise:01:11 PM (PST)12/23
Sunset:04:11 PM (PST) Moon Set:03:13 AM (PST)12/23

Copyright © 2014 The Weather Underground, Inc.